This demonstration page uses our WeatherBlox Daily Observations layout. Learn more.

36.17497, -115.13722

Hourly Observations for November 5, 2018

Temp ( °F °C ) Dew Point ( °F °C ) Humidity (%) Winds ( mph kmh ) Pressure ( in mb ) Visibility ( mi km ) Precip ( " mm )
12:53 am 00:53 Clear 57 13.9 31 -0.6 37 37 NW 6 9 29.88 1012 10 16.09344 0 0
1:53 am 01:53 Clear 56 13.3 30 -1.1 37 37 W 3 6 29.88 1012 10 16.09344 0 0
2:53 am 02:53 Clear 55 12.8 30 -1.1 38 38 Calm 29.88 1012 10 16.09344 0 0
3:53 am 03:53 Clear 56 13.3 29 -1.7 36 36 SSW 6 9 29.88 1012 10 16.09344 0 0
4:53 am 04:53 Clear 55 12.8 29 -1.7 37 37 WSW 3 6 29.88 1012 10 16.09344 0 0
5:53 am 05:53 Clear 53 11.7 30 -1.1 41 41 Calm 29.88 1012 10 16.09344 0 0
6:53 am 06:53 Sunny 53 11.7 31 -0.6 43 43 NNW 6 9 29.91 1013 10 16.09344 0 0
7:53 am 07:53 Sunny 59 15 29 -1.7 32 32 NNW 3 6 29.94 1014 10 16.09344 0 0
8:53 am 08:53 Sunny 65 18.3 26 -3.3 23 23 S 5 7 29.94 1014 10 16.09344 0 0
9:53 am 09:53 Sunny 67 19.4 28 -2.2 23 23 SSW 6 9 29.91 1013 10 16.09344 0 0
10:53 am 10:53 Sunny 70 21.1 27 -2.8 20 20 ESE 3 6 29.91 1013 10 16.09344 0 0
11:53 am 11:53 Sunny 73 22.8 26 -3.3 17 17 E 8 13 29.88 1012 10 16.09344 0 0
12:53 pm 12:53 Sunny 73 22.8 26 -3.3 17 17 E 5 7 29.85 1011 10 16.09344 0 0
1:53 pm 13:53 Sunny 74 23.3 26 -3.3 17 17 SSW 3 6 29.85 1011 10 16.09344 0 0
2:53 pm 14:53 Sunny 75 23.9 26 -3.3 16 16 Calm 29.83 1010 10 16.09344 0 0
3:53 pm 15:53 Sunny 75 23.9 26 -3.3 16 16 SSE 3 6 29.83 1010 10 16.09344 0 0
4:53 pm 16:53 Clear 73 22.8 27 -2.8 18 18 S 3 6 29.83 1010 10 16.09344 0 0
5:53 pm 17:53 Clear 70 21.1 29 -1.7 22 22 S 3 6 29.85 1011 10 16.09344 0 0
6:53 pm 18:53 Clear 65 18.3 29 -1.7 26 26 Calm 29.85 1011 10 16.09344 0 0
7:53 pm 19:53 Clear 62 16.7 31 -0.6 31 31 NW 6 9 29.85 1011 10 16.09344 0 0
8:53 pm 20:53 Clear 61 16.1 31 -0.6 32 32 NW 7 11 29.85 1011 10 16.09344 0 0
9:53 pm 21:53 Clear 59 15 31 -0.6 35 35 NNW 6 9 29.88 1012 10 16.09344 0 0
10:53 pm 22:53 Clear 58 14.4 30 -1.1 35 35 NW 6 9 29.88 1012 10 16.09344 0 0
11:53 pm 23:53 Clear 56 13.3 31 -0.6 39 39 SE 6 9 29.88 1012 10 16.09344 0 0

Powered by AerisWeather